Weather History for Joplin, MO

Change the Weather History Date:

Sunday, July 21, 2013

  Actual Average Record
Temperature  
Mean Temperature 76 °F 81 °F  
Max Temperature 83 °F 91 °F 102 °F (1974)
Min Temperature 69 °F 70 °F 52 °F (1970)
Degree Days  
Heating Degree Days 0 0  
Month to date heating degree days 0 0  
Since 1 June heating degree days 12 5  
Since 1 July heating degree days 0 0  
Cooling Degree Days 11 16  
Month to date cooling degree days 303 315  
Year to date cooling degree days 770 813  
Since 1 June cooling degree days 626 633  
Growing Degree Days 26 (Base 50)    
Moisture  
Dew Point 70 °F    
Average Humidity 83    
Maximum Humidity 97    
Minimum Humidity 69    
Precipitation  
Precipitation 0.11 in 0.12 in 2.75 in (1994)
Month to date precipitation 0.22 2.76  
Year to date precipitation 28.00 26.57  
Sea Level Pressure  
Sea Level Pressure 29.90 in    
Wind  
Wind Speed 5 mph (South)    
Max Wind Speed 15 mph    
Max Gust Speed 21 mph    
Visibility 10 miles    
Events Rain , Thunderstorm    
T = Trace of Precipitation, MM = Missing Value Source: NWS Daily Summary

Daily Weather History Graph

Daily Weather History Graph

Search for Another Location

Airport:

Trip Planner

Search our weather history database for the weather conditions in past years. The results will help you decide how hot, cold, wet, or windy it might be!

Date:

Astronomy

Jul. 21, 2013 Rise Set
Actual Time 6:14 AM CDT 8:34 PM CDT
Civil Twilight 5:44 AM CDT 9:03 PM CDT
Nautical Twilight 5:08 AM CDT 9:40 PM CDT
Astronomical Twilight 4:28 AM CDT 10:19 PM CDT
Moon 7:34 PM CDT (7/21) 5:00 AM CDT (7/21)
Length of Visible Light 15h 18m
Length of Day
14h 19m
Waxing Gibbous, 98% of the Moon is Illuminated
Jul 21
Waxing Gibbous
Jul 22
Full
Jul 29
Last Quarter
Aug 6
New
Aug 14
First Quarter

Hourly Weather History & Observations

Time (CDT) Temp. Heat Index Dew Point Humidity Pressure Visibility Wind Dir Wind Speed Gust Speed Precip Events Conditions
12:04 AM 69.8 °F - 68.0 °F 94% 29.95 in 10.0 mi SW 15.0 mph - N/A Rain , Thunderstorm Light Rain
12:19 AM 69.8 °F - 68.0 °F 94% 29.95 in 9.0 mi SSW 13.8 mph - N/A Rain Light Rain
12:53 AM 70.0 °F - 68.0 °F 93% 29.90 in 8.0 mi SSW 10.4 mph - N/A Rain Light Rain
1:53 AM 70.0 °F - 68.0 °F 93% 29.89 in 10.0 mi SSW 8.1 mph - N/A Rain Light Rain
2:53 AM 70.0 °F - 68.0 °F 93% 29.91 in 10.0 mi NNW 9.2 mph - N/A   Scattered Clouds
3:53 AM 70.0 °F - 68.0 °F 93% 29.91 in 10.0 mi Calm Calm - N/A   Partly Cloudy
4:53 AM 70.0 °F - 68.0 °F 93% 29.90 in 10.0 mi Calm Calm - N/A Rain Light Rain
5:53 AM 70.0 °F - 68.0 °F 93% 29.91 in 9.0 mi South 3.5 mph - N/A Rain Light Rain
6:53 AM 69.1 °F - 68.0 °F 96% 29.90 in 10.0 mi South 3.5 mph - N/A Rain Light Rain
7:53 AM 69.1 °F - 66.9 °F 93% 29.91 in 10.0 mi SE 8.1 mph - N/A   Partly Cloudy
8:53 AM 71.1 °F - 69.1 °F 93% 29.93 in 10.0 mi SSW 3.5 mph - N/A   Scattered Clouds
9:53 AM 71.1 °F - 70.0 °F 96% 29.94 in 10.0 mi SW 3.5 mph - N/A Rain Light Rain
10:53 AM 71.1 °F - 70.0 °F 96% 29.95 in 4.0 mi Calm Calm - N/A Rain Light Rain
11:53 AM 73.0 °F - 71.1 °F 93% 29.94 in 9.0 mi ESE 5.8 mph - N/A Rain Light Rain
12:15 PM 73.4 °F - 69.8 °F 88% 29.97 in 10.0 mi SSE 5.8 mph - N/A Rain Light Rain
12:53 PM 73.9 °F - 70.0 °F 87% 29.93 in 10.0 mi ESE 5.8 mph - N/A Rain Light Rain
1:30 PM 73.4 °F - 71.6 °F 94% 29.94 in 9.0 mi SE 5.8 mph - N/A   Overcast
1:53 PM 75.0 °F - 71.1 °F 87% 29.90 in 10.0 mi South 5.8 mph - N/A   Overcast
2:13 PM 77.0 °F - 71.6 °F 83% 29.91 in 10.0 mi South 6.9 mph - N/A   Overcast
2:24 PM 77.0 °F - 71.6 °F 83% 29.91 in 10.0 mi South 10.4 mph - N/A   Overcast
2:53 PM 80.1 °F 83.6 °F 71.1 °F 74% 29.85 in 10.0 mi South 13.8 mph - N/A   Mostly Cloudy
3:22 PM 80.6 °F 84.6 °F 71.6 °F 74% 29.88 in 10.0 mi SSW 12.7 mph - N/A   Mostly Cloudy
3:53 PM 81.0 °F 84.9 °F 71.1 °F 72% 29.84 in 10.0 mi SW 9.2 mph - N/A   Mostly Cloudy
4:53 PM 81.0 °F 84.9 °F 71.1 °F 72% 29.84 in 10.0 mi SSW 12.7 mph - N/A   Overcast
5:53 PM 82.0 °F 86.3 °F 71.1 °F 69% 29.84 in 10.0 mi SW 9.2 mph - N/A   Overcast
7:53 PM 80.1 °F 83.6 °F 71.1 °F 74% 29.83 in 10.0 mi SSW 5.8 mph - N/A   Mostly Cloudy
8:53 PM 78.1 °F - 72.0 °F 81% 29.84 in 10.0 mi Calm Calm - N/A   Scattered Clouds
9:53 PM 75.0 °F - 72.0 °F 90% 29.86 in 10.0 mi Calm Calm - 0.00 in   Scattered Clouds
10:53 PM 73.9 °F - 72.0 °F 93% 29.86 in 10.0 mi Calm Calm - N/A   Scattered Clouds
11:53 PM 75.9 °F - 72.0 °F 87% 29.86 in 10.0 mi SSE 3.5 mph - N/A   Mostly Cloudy